Regional Weather Roundup
Issued by NWS

Home | Current Version | Previous Version | Text Only | Print | Product List | Glossary On
Versions: 1 2 3 4 5 6 7 8 9 10 11 12 13 14 15 16 17 18 19 20 21 22 23 24 25 26 27 28 29 30 31 32 33 34 35 36 37 38 39 40 41 42 43 44 45 46 47 48 49 50
133
ASUS43 KTOP 211159
RWRKS

WEATHER ROUNDUP FOR KANSAS
NATIONAL WEATHER SERVICE GOODLAND KS
700 AM CDT SAT OCT 21 2017

NOTE:  "FAIR" INDICATES FEW OR NO CLOUDS BELOW 12,000 FEET WITH NO
SIGNIFICANT WEATHER AND/OR OBSTRUCTIONS TO VISIBILITY.

KSZ001>006-013>018-027>032-041>047-211300-
NORTHWEST KANSAS

CITY           SKY/WX    TMP DP  RH WIND       PRES   REMARKS
GOODLAND       CLEAR     51  28  41 NW21G31   29.71R
6HR MIN TEMP:  51; 6HR MAX TEMP:  56;

HAYS           CLOUDY    64  60  87 S22G30    29.61R
HILL CITY      CLEAR     64  56  75 W16G26    29.60R
6HR MIN TEMP:  64; 6HR MAX TEMP:  69;

RUSSELL        MOCLDY    67  63  87 S29G39    29.60R
6HR MIN TEMP:  67; 6HR MAX TEMP:  69;

$$

KSZ061>065-074>080-084>089-211300-
SOUTHWEST KANSAS

CITY           SKY/WX    TMP DP  RH WIND       PRES   REMARKS
DODGE CITY     CLEAR     61  57  87 S18G31    29.64R
6HR MIN TEMP:  61; 6HR MAX TEMP:  67;

ELKHART          N/A     56  46  69 SW10        N/A
GARDEN CITY    CLOUDY    60  55  83 S13       29.63R
6HR MIN TEMP:  60; 6HR MAX TEMP:  68;

GREAT BEND     CLOUDY    66  61  84 S25G32    29.64R
LIBERAL        CLOUDY    59  56  89 S15       29.68R
$$

KSZ066>073-081>083-090>101-211300-
SOUTHEAST KANSAS

CITY           SKY/WX    TMP DP  RH WIND       PRES   REMARKS
CHANUTE        CLOUDY    66  59  78 S20G32    29.87S
6HR MIN TEMP:  64; 6HR MAX TEMP:  66;

COFFEYVILLE    CLOUDY    67  61  81 S16G28    29.89
6HR MIN TEMP:  65; 6HR MAX TEMP:  67; 6HR PCP: TRACE;

HUTCHINSON     CLOUDY    69  64  84 S25G33    29.71R
6HR MIN TEMP:  68; 6HR MAX TEMP:  70;

MEDICINE LODGE   N/A     67  62  84 S18G32    29.70R
NEWTON         CLOUDY    69  63  81 S26G35    29.74R
PARSONS        CLOUDY    66  59  78 S9G17     29.89R
6HR MIN TEMP:  65; 6HR MAX TEMP:  66;

WICHITA INTL   CLOUDY    69  65  86 S21G30    29.74S
6HR MIN TEMP:  67; 6HR MAX TEMP:  69;

WICHITA JABRA  CLOUDY    69  65  86 S26G35    29.75S
6HR MIN TEMP:  67; 6HR MAX TEMP:  69;

WICHITA MCCONL CLOUDY    69  63  80 S24G33    29.75S
WINFIELD       PTCLDY    66  63  90 S16       29.80R
6HR MIN TEMP:  66; 6HR MAX TEMP:  70;

$$

KSZ007>012-019>026-033>040-048>060-102>105-211300-
NORTHEAST KANSAS

CITY           SKY/WX    TMP DP  RH WIND       PRES   REMARKS
CONCORDIA      LGT RAIN  67  63  87 S23G38    29.61S
6HR MIN TEMP:  67; 6HR MAX TEMP:  70; 6HR PCP:  0.03;

EMPORIA        CLOUDY    64  59  83 S22G32    29.78R
6HR MIN TEMP:  63; 6HR MAX TEMP:  65;

LAWRENCE       CLOUDY    67  60  78 SE21G33   29.80F
6HR MIN TEMP:  64; 6HR MAX TEMP:  67;

MANHATTAN      CLOUDY    68  62  81 S17G24    29.69F
6HR MIN TEMP:  68; 6HR MAX TEMP:  69;

OLATHE IND     CLOUDY    65  58  78 S20G29    29.85R
6HR MIN TEMP:  62; 6HR MAX TEMP:  66;

OLATHE EXE     CLOUDY    63  57  81 S15       29.85S
6HR MIN TEMP:  61; 6HR MAX TEMP:  64;

SALINA         CLEAR     70  64  81 S21G35    29.65S
6HR MIN TEMP:  69; 6HR MAX TEMP:  72;

TOPEKA BILLARD CLOUDY    68  61  78 S18G32    29.76S
6HR MIN TEMP:  67; 6HR MAX TEMP:  68;

TOPEKA FORBES  CLOUDY    68  61  78 S21G30    29.77S
6HR MIN TEMP:  66; 6HR MAX TEMP:  68;

$$




USA.gov is the U.S. government's official web portal to all federal, state and local government web resources and services.